Time,TemperatureF,DewpointF,PressureIn,WindDirection,WindDirectionDegrees,WindSpeedMPH,WindSpeedGustMPH,Humidity,HourlyPrecipIn,Conditions,Clouds,dailyrainin,SolarRadiationWatts/m^2,SoftwareType,DateUTC
2013-04-03 00:03:00,25.0,10.0,-100.00,WSW,255,2.0,4.0,52,0.00,,,0.00,0.000000,,2013-04-03 04:03:00,
2013-04-03 00:33:00,24.0,11.0,-100.00,NW,306,2.0,4.0,57,0.00,,,0.00,0.000000,,2013-04-03 04:33:00,
2013-04-03 00:43:00,24.0,11.0,-100.00,NW,306,2.0,4.0,57,0.00,,,0.00,0.000000,,2013-04-03 04:43:00,
2013-04-03 00:53:00,24.0,11.0,-100.00,NW,306,2.0,4.0,57,0.00,,,0.00,0.000000,,2013-04-03 04:53:00,
2013-04-03 01:03:00,24.0,11.0,-100.00,NW,306,2.0,4.0,57,0.00,,,0.00,0.000000,,2013-04-03 05:03:00,
2013-04-03 01:33:00,23.0,11.0,-100.00,WNW,294,2.0,3.0,60,0.00,,,0.00,0.000000,,2013-04-03 05:33:00,
2013-04-03 01:42:00,23.0,11.0,-100.00,WNW,294,2.0,3.0,60,0.00,,,0.00,0.000000,,2013-04-03 05:42:00,
2013-04-03 01:53:00,23.0,11.0,-100.00,WNW,294,2.0,3.0,60,0.00,,,0.00,0.000000,,2013-04-03 05:53:00,
2013-04-03 02:03:00,23.0,11.0,-100.00,WNW,294,2.0,3.0,60,0.00,,,0.00,0.000000,,2013-04-03 06:03:00,
2013-04-03 02:32:00,23.0,14.0,-100.00,WNW,293,2.0,3.0,68,0.00,,,0.00,0.000000,,2013-04-03 06:32:00,
2013-04-03 02:42:00,23.0,14.0,-100.00,WNW,293,2.0,3.0,68,0.00,,,0.00,0.000000,,2013-04-03 06:42:00,
2013-04-03 02:52:00,23.0,14.0,-100.00,WNW,293,2.0,3.0,68,0.00,,,0.00,0.000000,,2013-04-03 06:52:00,
2013-04-03 03:02:00,23.0,14.0,-100.00,WNW,293,2.0,3.0,68,0.00,,,0.00,0.000000,,2013-04-03 07:02:00,
2013-04-03 03:33:00,23.0,16.0,-100.00,WNW,293,3.0,5.0,75,0.00,,,-99.99,0.000000,,2013-04-03 07:33:00,
2013-04-03 03:43:00,23.0,16.0,-100.00,WNW,293,3.0,5.0,75,0.00,,,-99.99,0.000000,,2013-04-03 07:43:00,
2013-04-03 03:53:00,23.0,16.0,-100.00,WNW,293,3.0,5.0,75,0.00,,,-99.99,0.000000,,2013-04-03 07:53:00,
2013-04-03 04:03:00,23.0,16.0,-100.00,WNW,293,3.0,5.0,75,0.00,,,-99.99,0.000000,,2013-04-03 08:03:00,
2013-04-03 04:33:00,21.0,15.0,-100.00,WNW,301,2.0,4.0,78,0.00,,,0.00,0.000000,,2013-04-03 08:33:00,
2013-04-03 04:43:00,21.0,15.0,-100.00,WNW,301,2.0,4.0,78,0.00,,,0.00,0.000000,,2013-04-03 08:43:00,
2013-04-03 04:52:00,21.0,15.0,-100.00,WNW,301,2.0,4.0,78,0.00,,,0.00,0.000000,,2013-04-03 08:52:00,
2013-04-03 05:02:00,21.0,15.0,-100.00,WNW,301,2.0,4.0,78,0.00,,,0.00,0.000000,,2013-04-03 09:02:00,
2013-04-03 05:33:00,20.0,15.0,-100.00,WNW,297,2.0,3.0,79,0.00,,,0.00,0.000000,,2013-04-03 09:33:00,
2013-04-03 05:43:00,20.0,15.0,-100.00,WNW,297,2.0,3.0,79,0.00,,,0.00,0.000000,,2013-04-03 09:43:00,
2013-04-03 05:53:00,20.0,15.0,-100.00,WNW,297,2.0,3.0,79,0.00,,,0.00,0.000000,,2013-04-03 09:53:00,
2013-04-03 06:03:00,20.0,15.0,-100.00,WNW,297,2.0,3.0,79,0.00,,,0.00,0.000000,,2013-04-03 10:03:00,
2013-04-03 06:33:00,19.0,13.0,-100.00,WNW,293,2.0,2.0,78,0.00,,,0.00,0.000000,,2013-04-03 10:33:00,
2013-04-03 06:43:00,19.0,13.0,-100.00,WNW,293,2.0,2.0,78,0.00,,,0.00,0.000000,,2013-04-03 10:43:00,
2013-04-03 06:53:00,19.0,13.0,-100.00,WNW,293,2.0,2.0,78,0.00,,,0.00,0.000000,,2013-04-03 10:53:00,
2013-04-03 07:02:00,19.0,13.0,-100.00,WNW,293,2.0,2.0,78,0.00,,,0.00,0.000000,,2013-04-03 11:02:00,
2013-04-03 07:33:00,21.0,16.0,-100.00,WNW,300,3.0,5.0,79,0.00,,,0.00,2.000000,,2013-04-03 11:33:00,
2013-04-03 07:42:00,21.0,16.0,-100.00,WNW,300,3.0,5.0,79,0.00,,,0.00,2.000000,,2013-04-03 11:42:00,
2013-04-03 07:53:00,21.0,16.0,-100.00,WNW,300,3.0,5.0,79,0.00,,,0.00,2.000000,,2013-04-03 11:53:00,
2013-04-03 08:02:00,21.0,16.0,-100.00,WNW,300,3.0,5.0,79,0.00,,,0.00,2.000000,,2013-04-03 12:02:00,
2013-04-03 08:33:00,24.0,13.0,-100.00,WNW,295,4.0,9.0,63,0.00,,,-99.99,71.000000,,2013-04-03 12:33:00,
2013-04-03 08:42:00,24.0,13.0,-100.00,WNW,295,4.0,9.0,63,0.00,,,-99.99,71.000000,,2013-04-03 12:42:00,
2013-04-03 08:52:00,24.0,13.0,-100.00,WNW,295,4.0,9.0,63,0.00,,,-99.99,71.000000,,2013-04-03 12:52:00,
2013-04-03 09:02:00,24.0,13.0,-100.00,WNW,295,4.0,9.0,63,0.00,,,-99.99,71.000000,,2013-04-03 13:02:00,
2013-04-03 09:32:00,28.0,12.0,-100.00,NW,306,7.0,15.0,50,0.00,,,0.00,303.000000,,2013-04-03 13:32:00,
2013-04-03 09:42:00,28.0,12.0,-100.00,NW,306,7.0,15.0,50,0.00,,,0.00,303.000000,,2013-04-03 13:42:00,
2013-04-03 09:52:00,28.0,12.0,-100.00,NW,306,7.0,15.0,50,0.00,,,0.00,303.000000,,2013-04-03 13:52:00,
2013-04-03 10:02:00,28.0,12.0,-100.00,NW,306,7.0,15.0,50,0.00,,,0.00,303.000000,,2013-04-03 14:02:00,
2013-04-03 10:32:00,28.0,12.0,-100.00,WNW,302,7.0,15.0,51,0.00,,,0.00,406.000000,,2013-04-03 14:32:00,
2013-04-03 10:43:00,28.0,12.0,-100.00,WNW,302,7.0,15.0,51,0.00,,,0.00,406.000000,,2013-04-03 14:43:00,
2013-04-03 10:52:00,28.0,12.0,-100.00,WNW,302,7.0,15.0,51,0.00,,,0.00,406.000000,,2013-04-03 14:52:00,
2013-04-03 11:02:00,28.0,12.0,-100.00,WNW,302,7.0,15.0,51,0.00,,,0.00,406.000000,,2013-04-03 15:02:00,
2013-04-03 11:33:00,29.0,11.0,-100.00,West,267,8.0,13.0,46,0.00,,,0.00,473.000000,,2013-04-03 15:33:00,
2013-04-03 11:43:00,29.0,11.0,-100.00,West,267,8.0,13.0,46,0.00,,,0.00,473.000000,,2013-04-03 15:43:00,
2013-04-03 11:53:00,29.0,11.0,-100.00,West,267,8.0,13.0,46,0.00,,,0.00,473.000000,,2013-04-03 15:53:00,
2013-04-03 12:33:00,31.0,10.0,-100.00,WNW,299,9.0,16.0,41,0.00,,,0.00,573.000000,,2013-04-03 16:33:00,
2013-04-03 12:44:00,31.0,10.0,-100.00,WNW,299,9.0,16.0,41,0.00,,,0.00,573.000000,,2013-04-03 16:44:00,
2013-04-03 12:53:00,31.0,10.0,-100.00,WNW,299,9.0,16.0,41,0.00,,,0.00,573.000000,,2013-04-03 16:53:00,
2013-04-03 13:03:00,31.0,10.0,-100.00,WNW,299,9.0,16.0,41,0.00,,,0.00,573.000000,,2013-04-03 17:03:00,
2013-04-03 13:35:00,32.0,10.0,-100.00,NW,318,8.0,14.0,39,0.00,,,-99.99,521.000000,,2013-04-03 17:35:00,
2013-04-03 13:47:00,32.0,10.0,-100.00,NW,318,8.0,14.0,39,0.00,,,-99.99,521.000000,,2013-04-03 17:47:00,
2013-04-03 13:54:00,32.0,10.0,-100.00,NW,318,8.0,14.0,39,0.00,,,-99.99,521.000000,,2013-04-03 17:54:00,
2013-04-03 14:02:00,32.0,10.0,-100.00,NW,318,8.0,14.0,39,0.00,,,-99.99,521.000000,,2013-04-03 18:02:00,
2013-04-03 14:34:00,31.0,9.0,-100.00,WNW,291,9.0,15.0,39,0.00,,,0.00,542.000000,,2013-04-03 18:34:00,
2013-04-03 14:43:00,31.0,9.0,-100.00,WNW,291,9.0,15.0,39,0.00,,,0.00,542.000000,,2013-04-03 18:43:00,
2013-04-03 14:52:00,31.0,9.0,-100.00,WNW,291,9.0,15.0,39,0.00,,,0.00,542.000000,,2013-04-03 18:52:00,
2013-04-03 15:03:00,31.0,9.0,-100.00,WNW,291,9.0,15.0,39,0.00,,,0.00,542.000000,,2013-04-03 19:03:00,
2013-04-03 15:32:00,34.0,7.0,-100.00,WNW,285,9.0,18.0,32,0.00,,,0.00,674.000000,,2013-04-03 19:32:00,
2013-04-03 15:42:00,34.0,7.0,-100.00,WNW,285,9.0,18.0,32,0.00,,,0.00,674.000000,,2013-04-03 19:42:00,
2013-04-03 15:52:00,34.0,7.0,-100.00,WNW,285,9.0,18.0,32,0.00,,,0.00,674.000000,,2013-04-03 19:52:00,
2013-04-03 16:02:00,34.0,7.0,-100.00,WNW,285,9.0,18.0,32,0.00,,,0.00,674.000000,,2013-04-03 20:02:00,
2013-04-03 16:33:00,31.0,16.0,-100.00,NW,316,7.0,14.0,54,0.00,,,-99.99,573.000000,,2013-04-03 20:33:00,
2013-04-03 16:42:00,31.0,16.0,-100.00,NW,316,7.0,14.0,54,0.00,,,-99.99,573.000000,,2013-04-03 20:42:00,
2013-04-03 17:03:00,31.0,16.0,-100.00,NW,316,7.0,14.0,54,0.00,,,-99.99,573.000000,,2013-04-03 21:03:00,
2013-04-03 17:33:00,32.0,15.0,-100.00,WNW,293,6.0,9.0,49,0.00,,,-99.99,587.000000,,2013-04-03 21:33:00,
2013-04-03 17:42:00,32.0,15.0,-100.00,WNW,293,6.0,9.0,49,0.00,,,-99.99,587.000000,,2013-04-03 21:42:00,
2013-04-03 17:52:00,32.0,15.0,-100.00,WNW,293,6.0,9.0,49,0.00,,,-99.99,587.000000,,2013-04-03 21:52:00,
2013-04-03 18:02:00,32.0,15.0,-100.00,WNW,293,6.0,9.0,49,0.00,,,-99.99,587.000000,,2013-04-03 22:02:00,
2013-04-03 18:33:00,31.0,11.0,-100.00,West,265,6.0,11.0,42,0.00,,,0.00,293.000000,,2013-04-03 22:33:00,
2013-04-03 18:42:00,31.0,11.0,-100.00,West,265,6.0,11.0,42,0.00,,,0.00,293.000000,,2013-04-03 22:42:00,
2013-04-03 18:53:00,31.0,11.0,-100.00,West,265,6.0,11.0,42,0.00,,,0.00,293.000000,,2013-04-03 22:53:00,
2013-04-03 19:02:00,31.0,11.0,-100.00,West,265,6.0,11.0,42,0.00,,,0.00,293.000000,,2013-04-03 23:02:00,
2013-04-03 19:33:00,29.0,9.0,-100.00,WNW,289,6.0,11.0,43,0.00,,,0.00,245.000000,,2013-04-03 23:33:00,
2013-04-03 19:43:00,29.0,9.0,-100.00,WNW,289,6.0,11.0,43,0.00,,,0.00,245.000000,,2013-04-03 23:43:00,
2013-04-03 19:55:00,29.0,9.0,-100.00,WNW,289,6.0,11.0,43,0.00,,,0.00,245.000000,,2013-04-03 23:55:00,
2013-04-03 20:03:00,29.0,9.0,-100.00,WNW,289,6.0,11.0,43,0.00,,,0.00,245.000000,,2013-04-04 00:03:00,
2013-04-03 20:32:00,26.0,9.0,-100.00,WNW,289,5.0,7.0,48,0.00,,,0.00,23.000000,,2013-04-04 00:32:00,
2013-04-03 20:43:00,26.0,9.0,-100.00,WNW,289,5.0,7.0,48,0.00,,,0.00,23.000000,,2013-04-04 00:43:00,
2013-04-03 20:52:00,26.0,9.0,-100.00,WNW,289,5.0,7.0,48,0.00,,,0.00,23.000000,,2013-04-04 00:52:00,
2013-04-03 21:02:00,26.0,9.0,-100.00,WNW,289,5.0,7.0,48,0.00,,,0.00,23.000000,,2013-04-04 01:02:00,
2013-04-03 21:32:00,25.0,9.0,-100.00,WNW,294,5.0,8.0,51,0.00,,,0.00,0.000000,,2013-04-04 01:32:00,
2013-04-03 21:43:00,25.0,9.0,-100.00,WNW,294,5.0,8.0,51,0.00,,,0.00,0.000000,,2013-04-04 01:43:00,
2013-04-03 21:53:00,25.0,9.0,-100.00,WNW,294,5.0,8.0,51,0.00,,,0.00,0.000000,,2013-04-04 01:53:00,
2013-04-03 22:02:00,25.0,9.0,-100.00,WNW,294,5.0,8.0,51,0.00,,,0.00,0.000000,,2013-04-04 02:02:00,
2013-04-03 22:32:00,24.0,10.0,-100.00,NW,311,3.0,7.0,55,0.00,,,0.00,0.000000,,2013-04-04 02:32:00,
2013-04-03 22:42:00,24.0,10.0,-100.00,NW,311,3.0,7.0,55,0.00,,,0.00,0.000000,,2013-04-04 02:42:00,
2013-04-03 22:53:00,24.0,10.0,-100.00,NW,311,3.0,7.0,55,0.00,,,0.00,0.000000,,2013-04-04 02:53:00,
2013-04-03 23:02:00,24.0,10.0,-100.00,NW,311,3.0,7.0,55,0.00,,,0.00,0.000000,,2013-04-04 03:02:00,
2013-04-03 23:34:00,21.0,9.0,-100.00,NNE,22,1.0,3.0,60,0.00,,,0.00,0.000000,,2013-04-04 03:34:00,
2013-04-03 23:45:00,21.0,9.0,-100.00,NNE,22,1.0,3.0,60,0.00,,,0.00,0.000000,,2013-04-04 03:45:00,
2013-04-03 23:53:00,21.0,9.0,-100.00,NNE,22,1.0,3.0,60,0.00,,,0.00,0.000000,,2013-04-04 03:53:00,